Regional Weather Roundup
Issued by NWS

Home | Current Version | Previous Version | Text Only | Print | Product List | Glossary Off
Versions: 1 2 3 4 5 6 7 8 9 10 11 12 13 14 15 16 17 18 19 20 21 22 23 24 25 26 27 28 29 30 31 32 33 34 35 36 37 38 39 40 41 42 43 44 45 46

000
ASUS45 KBOU 192110
RWRCO

WEATHER ROUNDUP FOR COLORADO
NATIONAL WEATHER SERVICE DENVER/BOULDER CO
200 PM MST MON FEB 19 2018

NOTE: "FAIR" INDICATES FEW OR NO CLOUDS BELOW 12000 FEET WITH NO
SIGNIFICANT WEATHER AND/OR OBSTRUCTIONS TO VISIBILITY.

COZ001>005-013-030-031-192200-
...NORTHWEST COLORADO...

CITY           SKY/WX    TMP DP  RH WIND       PRES   REMARKS
CRAIG          SNOW       9   3  77 W17       29.46R VSB 1/2 WCI  -9
HAYDEN         SNOW      10   7  85 W14       29.39R VSB 1/4 WCI  -5
MEEKER         HVY SNOW  18  15  88 S13       29.35R VSB 1/4 WCI   5
RANGELY        LGT SNOW  13   8  79 E21G31    29.42R VSB 1   WCI  -5
RABBIT EARS PA LGT SNOW  23  19  86 SW17G45   29.26R VSB 3/4 WCI   9
STEAMBOAT SPGS CLOUDY    16  12  86 SW14G20   29.33R WCI   2
WALDEN         CLOUDY    30  25  80 SW14      29.29R WCI  20
$$

COZ006>008-011-192200-
...WEST CENTRAL VALLEYS...

CITY           SKY/WX    TMP DP  RH WIND       PRES   REMARKS
GRAND JUNCTION LGT SNOW  36  35  96 NW20G25   29.37R FOG
MONTROSE       PTSUNNY   44  26  49 SW15      29.37R
EAGLE          CLOUDY    37  34  87 CALM      29.29F
RIFLE          FRZ RAIN  33  32  96 W26G33    29.34R VSB 1/2 WCI  20
DELTA          FAIR      51  24  35 SW26G43   29.35R
NUCLA          PTSUNNY   43  27  52 SW20G37   29.39F
$$

COZ017>023-064>068-192200-
...SOUTHWEST COLORADO...

CITY           SKY/WX    TMP DP  RH WIND       PRES   REMARKS
DURANGO        LGT RAIN  38  34  85 SW18G26   29.46F
CORTEZ         CLOUDY    44  25  47 SW33G53   29.44S
PAGOSA SPRINGS CLOUDY    41  27  57 SW25G38   29.47F
TELLURIDE      LGT SNOW  30  21  69 W7G16     29.39F WCI  24
WOLF CREEK PAS   N/A     19  19 100 SW38G71   29.42R WCI  -1
$$

COZ009-010-012-014-032>034-037-058>063-192200-
...CENTRAL COLORADO...

CITY           SKY/WX    TMP DP  RH WIND       PRES   REMARKS
ASPEN          CLOUDY    33  28  81 NW12      29.29F WCI  24
BUENA VISTA    CLOUDY    41  18  39 SE25G31   29.30F
COPPER MTN     LGT SNOW  25  16  68 SW12G28   29.33R VSB 3/4 WCI  14
BERTHOUD PASS  LGT SNOW  18   7  62 W33G40    29.31F VSB 1   WCI  -3
COTTONWOOD PAS CLOUDY    37  18  44 S8G35     29.32F
GUNNISON       CLOUDY    36  25  64 W13       29.35F
GRANBY         CLOUDY    32  26  78 W15       29.30R WCI  22
KREMMLING      LGT SNOW  37  32  81 SW22G29   29.31R
LEADVILLE      LGT SNOW  26  21  81 S21G35    29.28S VSB 3/4 WCI  12
MONARCH PASS   CLOUDY    21  19  93 SW63G76   29.41F FOG     WCI  -3
SALIDA         CLOUDY    44  28  52 S9G21     29.41F
SUNLIGHT       LGT SNOW  21  19  93 SW30G56   29.25F VSB 3/4 WCI   3
WILKERSON PASS SNOW      23  21  93 S14G25    29.38S VSB 1/2 WCI  11
$$

COZ069>075-192200-
...SAN LUIS VALLEY/SANGRE DE CRISTO MOUNTAINS...

CITY           SKY/WX    TMP DP  RH WIND       PRES   REMARKS
ALAMOSA        CLOUDY    43  27  53 SW25G45   29.45F
DEL NORTE      LGT SNOW  33  30  88 SW9G18    29.42F WCI  25
LA VETA PASS   LGT SNOW  30  27  86 S32G49    29.58F WCI  15
SAGUACHE       LGT SNOW  32  30  93 SW9G30    29.43F VSB 1   WCI  24
$$

COZ035-036-038>040-192200-
...NORTHERN COLORADO FRONT RANGE...

CITY           SKY/WX    TMP DP  RH WIND       PRES   REMARKS
DENVER INTL AP LGT SNOW  13   8  81 E13       29.54F WCI  -2
AURORA         FLURRIES  13  10  88 NE9       29.53F WCI   0
FRONT RANGE AP LGT SNOW  16  12  86 E10       29.54F WCI   3
ERIE MUNI ARPT LGT SNOW  15  10  83 NE6       29.63S VSB 3/4 WCI   6
BOULDER MUN AP LGT SNOW  14  12  92 NE6       29.56F WCI   5
CENTENNIAL     LGT SNOW  14  11  87 N8        29.50F FOG     WCI   3
BROOMFIELD     SNOW      12  10  92 NE6       29.54F VSB 1/4 WCI   3
FORT COLLINS   LGT SNOW  14   9  79 E12       29.59F WCI   0
LONGMONT       LGT SNOW  17  11  77 E6        29.60S WCI   9
$$

COZ041-046-047-076>085-087-088-192200-
...PIKES PEAK/PALMER DIVIDE AND SOUTHERN FOOTHILLS...

CITY           SKY/WX    TMP DP  RH WIND       PRES   REMARKS
COLO. SPRINGS  LGT SNOW  18  15  88 S14       29.51F FOG     WCI   4
A. F. ACADEMY  LGT SNOW  16  13  91 S8        29.46S FOG     WCI   5
SCHRIEVER AFB  NOT AVBL
CHEYENNE MTN   SNOWSHWR  14  12  94 S15       29.40F VSB 1/2 WCI  -2
ELLICOTT         N/A    N/A N/A N/A S8        29.50F
FALCON         CLOUDY    18  17  95 MISG      29.46F
FORT CARSON    NOT AVBL
LIMON          CLOUDY    21  13  71 S12       29.55  WCI   9
MONUMENT HILL  FLURRIES N/A N/A N/A S9        29.44F
CANON CITY     CLOUDY    21  21 100 E5        29.52F WCI  15
WALSENBURG     NOT AVBL
TRINIDAD       FAIR      37  21  52 E10       29.47F
$$

COZ042>045-048>051-090-091-192200-
...NORTHEAST COLORADO...

CITY           SKY/WX    TMP DP  RH WIND       PRES   REMARKS
GREELEY ARPT   FLURRIES  13   8  81 E9        29.63S WCI   1
AKRON          LGT SNOW  11   8  88 E10       29.62F FOG     WCI  -3
BURLINGTON     LGT SNOW  17  12  80 NE7       29.66F WCI   8
WRAY           FLURRIES  18  12  79 NE10      29.72F WCI   6
YUMA           NOT AVBL
STERLING       LGT SNOW  12   9  85 NE9       29.69F WCI   0
HOLYOKE        FLURRIES  18  10  73 NE14      29.72F WCI   4
FORT MORGAN    LGT SNOW  13   7  76 E12       29.65F WCI  -1
$$

COZ086-089-092>099-192200-
...SOUTHEAST COLORADO...

CITY           SKY/WX    TMP DP  RH WIND       PRES   REMARKS
PUEBLO         FLURRIES  22  15  75 SE8       29.57F WCI  12
LA JUNTA       CLOUDY    26  14  60 NE7       29.61F WCI  18
LAMAR          FLURRIES  31  13  47 NE9       29.63F WCI  23
SPRINGFIELD      N/A     36  21  54 E14       29.58F
$$




USA.gov is the U.S. government's official web portal to all federal, state and local government web resources and services.